Home > Weather > Kranj > Past weeks

Flag for Slovenia Weather for the Past 2 Weeks in Kranj, Slovenia

Now
63 °F

Scattered clouds.


Feels Like: 63 °F
Forecast: 46 / 62 °F
Wind: 8 mph from North

Location: Ljubljana Airport / Brnik

Current Time: May 4, 2016 at 5:37:11 PM

Latest Report: May 4, 2016 at 5:00 PM


Visibility: N/A

Pressure: 30.07 "Hg

Humidity: 37%

Dew Point: 36 °F

Location of KranjLocation

Historic Weather in Kranj — Graph

°F

Kranj Temperature Yesterday

Maximum temperature yesterday: 68 °F (at 1:00 PM)
Minimum temperature yesterday: 43 °F (at 5:30 AM)
Average temperature yesterday: 58 °F

High & Low Weather Summary for the Past Weeks

 TemperatureHumidityPressure
High70 °F (Apr 21, 4:00 PM)100% (Apr 22, 7:00 AM)30.36 "Hg (Apr 22, 7:00 AM)
Low28 °F (Apr 30, 6:00 AM)24% (Apr 25, 5:30 PM)29.53 "Hg (Apr 24, 5:30 AM)
Average48 °F73%29.95 "Hg
* Reported Apr 19 4:00 PM — May 4 4:30 PM, Kranj, Weather by CustomWeather, © 2016

Note: Actual official high and low records may vary slightly from our data, if they occured in-between our weather recording intervals... More about our weather records

Advertising

Kranj Weather History for the Previous 24 Hours

Scroll right to see more
 ConditionsComfort  
Time TempWeatherWind HumidityBarometerVisibility
4:30 PM
Wed, May 4
64 °FPartly sunny.12 mph34%30.07 "HgN/A
4:00 PM63 °FPartly sunny.10 mph37%30.07 "HgN/A
3:30 PM64 °FPartly sunny.10 mph34%30.07 "HgN/A
3:00 PM63 °FPartly sunny.13 mph32%30.07 "HgN/A
2:30 PM64 °FPartly sunny.12 mph32%30.07 "HgN/A
1:30 PM64 °FScattered clouds.10 mph30%30.07 "HgN/A
1:00 PM64 °FScattered clouds.12 mph32%30.04 "HgN/A
12:30 PM64 °FScattered clouds.13 mph32%30.04 "HgN/A
12:00 PM64 °FScattered clouds.13 mph32%30.04 "HgN/A
11:30 AM63 °FScattered clouds.9 mph37%30.04 "HgN/A
11:00 AM64 °FScattered clouds.13 mph32%30.04 "HgN/A
10:30 AM63 °FPartly sunny.13 mph32%30.04 "HgN/A
10:00 AM61 °FBroken clouds.16 mph34%30.04 "HgN/A
9:30 AM61 °FBroken clouds.14 mph34%30.04 "HgN/A
9:00 AM61 °FBroken clouds.15 mph31%30.01 "HgN/A
8:00 AM59 °FScattered clouds.15 mph36%30.01 "HgN/A
7:30 AM57 °FScattered clouds.13 mph41%30.01 "HgN/A
7:00 AM57 °FScattered clouds.12 mph39%29.98 "HgN/A
6:30 AM57 °FPassing clouds.13 mph36%29.98 "HgN/A
6:00 AM57 °FPassing clouds.16 mph36%29.98 "HgN/A
5:30 AM57 °FPassing clouds.14 mph39%29.98 "HgN/A
5:00 AM57 °FPassing clouds.14 mph41%29.95 "HgN/A
4:30 AM57 °FPassing clouds.13 mph44%29.95 "HgN/A
4:00 AM57 °FPassing clouds.13 mph44%29.95 "HgN/A
3:00 AM57 °FPassing clouds.8 mph44%29.95 "HgN/A
2:30 AM57 °FPassing clouds.8 mph44%29.95 "HgN/A
1:30 AM59 °FPassing clouds.15 mph36%29.95 "HgN/A
1:00 AM59 °FPassing clouds.15 mph36%29.95 "HgN/A
12:30 AM55 °FPassing clouds.13 mph44%29.95 "HgN/A
12:00 AM55 °FPassing clouds.13 mph44%29.95 "HgN/A
11:30 PM
Tue, May 3
55 °FPassing clouds.6 mph47%29.95 "HgN/A
11:00 PM57 °FPassing clouds.6 mph41%29.95 "HgN/A
10:30 PM59 °FPassing clouds.7 mph34%29.95 "HgN/A
10:00 PM59 °FPassing clouds.9 mph34%29.95 "HgN/A
9:30 PM61 °FPassing clouds.10 mph31%29.95 "HgN/A
9:00 PM61 °FScattered clouds.12 mph29%29.92 "HgN/A
8:30 PM61 °FScattered clouds.8 mph34%29.92 "HgN/A
8:00 PM63 °FScattered clouds.10 mph32%29.89 "HgN/A
7:30 PM64 °FScattered clouds.10 mph34%29.89 "HgN/A
7:00 PM64 °FScattered clouds.13 mph32%29.89 "HgN/A
6:30 PM64 °FScattered clouds.10 mph37%29.89 "HgN/A
6:00 PM66 °FScattered clouds.10 mph35%29.86 "HgN/A
5:30 PM68 °FScattered clouds.6 mph28%29.86 "HgN/A
5:00 PM68 °FScattered clouds.10 mph33%29.86 "HgN/A
Weather by CustomWeather, © 2016

See weather overviewHow to use our weather pages